When you browse on this site, cookies collect data to enhance your experience and personalize the content and advertising you see.
Visit our Privacy Policy to learn more. By continuing to use the site, you agree to this use of cookies and data.
  • In Belgium
  • List of Countries
  • For 7 days
  • Water Temperature
  • Satellite Maps
  • Weather Map
  • Weather Widgets
  • user-avatar
    Login

    Hourly Weather Banning

    Today, 16 December, Sunday

    Time Temperature Precipitation Wind Pressure Humidity
    00:00 +12°C° 0 mm 1 mps 701 mmHg 29%
    01:00 +11°C° 0 mm 1 mps 701 mmHg 29%
    02:00 +11°C° 0 mm 1 mps 701 mmHg 30%
    03:00 +11°C° 0 mm 1 mps 701 mmHg 30%
    04:00 +11°C° 0 mm 1 mps 701 mmHg 31%
    05:00 +10°C° 0 mm 1 mps 701 mmHg 31%
    06:00 +10°C° 0 mm 1 mps 701 mmHg 32%
    07:00 +10°C° 0 mm 1 mps 701 mmHg 32%
    08:00 +13°C° 0 mm 1 mps 702 mmHg 27%
    09:00 +16°C° 0 mm 1 mps 703 mmHg 23%
    10:00 +20°C° 0 mm 1 mps 704 mmHg 18%
    11:00 +20°C° 0 mm 1 mps 704 mmHg 17%
    12:00 +21°C° 0 mm 1 mps 703 mmHg 17%
    13:00 +21°C° 0 mm 1 mps 703 mmHg 16%
    14:00 +21°C° 0 mm 1 mps 703 mmHg 19%
    15:00 +20°C° 0 mm 1 mps 702 mmHg 23%
    16:00 +19°C° 0 mm 1 mps 702 mmHg 26%
    17:00 +16°C° 0 mm 1 mps 702 mmHg 28%
    18:00 +14°C° 0 mm 1 mps 702 mmHg 30%
    19:00 +13°C° 0 mm 1 mps 702 mmHg 32%
    20:00 +12°C° 0 mm 1 mps 702 mmHg 32%
    21:00 +12°C° 0 mm 1 mps 702 mmHg 32%
    22:00 +12°C° 0 mm 1 mps 702 mmHg 32%
    23:00 +12°C° 0 mm 1 mps 702 mmHg 31%

    Tomorrow, 17 December, Monday

    Time Temperature Precipitation Wind Pressure Humidity
    00:00 +12°C° 0 mm 1 mps 702 mmHg 31%
    01:00 +12°C° 0 mm 1 mps 702 mmHg 31%
    02:00 +12°C° 0 mm 1 mps 702 mmHg 30%
    03:00 +12°C° 0 mm 1 mps 702 mmHg 29%
    04:00 +12°C° 0 mm 1 mps 702 mmHg 29%
    05:00 +12°C° 0 mm 1 mps 702 mmHg 30%
    06:00 +11°C° 0 mm 1 mps 702 mmHg 32%
    07:00 +10°C° 0 mm 1 mps 702 mmHg 33%
    08:00 +13°C° 0 mm 2 mps 703 mmHg 32%
    09:00 +15°C° 0 mm 2 mps 703 mmHg 30%
    10:00 +17°C° 0 mm 2 mps 704 mmHg 29%
    11:00 +17°C° 0 mm 2 mps 703 mmHg 32%
    12:00 +18°C° 0 mm 3 mps 703 mmHg 35%
    13:00 +18°C° 0 mm 3 mps 702 mmHg 37%
    14:00 +17°C° 0 mm 3 mps 702 mmHg 41%
    15:00 +17°C° 0 mm 3 mps 702 mmHg 45%
    16:00 +16°C° 0 mm 3 mps 702 mmHg 49%
    17:00 +15°C° 0 mm 2 mps 702 mmHg 56%
    18:00 +13°C° 0 mm 2 mps 702 mmHg 64%
    19:00 +12°C° 0 mm 1 mps 702 mmHg 71%
    20:00 +11°C° 0 mm 1 mps 702 mmHg 72%
    21:00 +11°C° 0 mm 1 mps 703 mmHg 73%
    22:00 +11°C° 0 mm 1 mps 703 mmHg 74%
    23:00 +11°C° 0 mm 1 mps 703 mmHg 74%

    Day after tomorrow, 18 December, Tuesday

    Time Temperature Precipitation Wind Pressure Humidity
    00:00 +10°C° 0 mm 1 mps 703 mmHg 74%
    01:00 +10°C° 0 mm 1 mps 702 mmHg 75%
    02:00 +10°C° 0 mm 1 mps 702 mmHg 73%
    03:00 +10°C° 0 mm 1 mps 702 mmHg 72%
    04:00 +10°C° 0 mm 1 mps 702 mmHg 71%
    05:00 +10°C° 0 mm 1 mps 702 mmHg 68%
    06:00 +10°C° 0 mm 1 mps 702 mmHg 65%
    07:00 +10°C° 0 mm 1 mps 703 mmHg 62%
    08:00 +12°C° 0 mm 1 mps 704 mmHg 53%
    09:00 +15°C° 0 mm 1 mps 704 mmHg 43%
    10:00 +19°C° 0 mm 1 mps 705 mmHg 33%
    11:00 +20°C° 0 mm 1 mps 705 mmHg 31%
    12:00 +19°C° 0 mm 2 mps 704 mmHg 30%
    13:00 +20°C° 0 mm 2 mps 704 mmHg 28%
    14:00 +20°C° 0 mm 2 mps 704 mmHg 31%
    15:00 +20°C° 0 mm 1 mps 703 mmHg 35%
    16:00 +19°C° 0 mm 1 mps 703 mmHg 38%
    17:00 +18°C° 0 mm 1 mps 703 mmHg 43%
    18:00 +15°C° 0 mm 1 mps 703 mmHg 49%
    19:00 +13°C° 0 mm 1 mps 703 mmHg 54%
    20:00 +13°C° 0 mm 1 mps 703 mmHg 52%
    21:00 +13°C° 0 mm 1 mps 703 mmHg 50%
    22:00 +13°C° 0 mm 1 mps 703 mmHg 47%
    23:00 +13°C° 0 mm 1 mps 703 mmHg 46%

    19 December, Wednesday

    Time Temperature Precipitation Wind Pressure Humidity
    00:00 +13°C° 0 mm 1 mps 703 mmHg 44%
    01:00 +13°C° 0 mm 1 mps 703 mmHg 43%
    02:00 +13°C° 0 mm 2 mps 703 mmHg 42%
    03:00 +13°C° 0 mm 2 mps 703 mmHg 41%
    04:00 +13°C° 0 mm 2 mps 703 mmHg 40%
    05:00 +13°C° 0 mm 2 mps 703 mmHg 40%
    06:00 +13°C° 0 mm 2 mps 703 mmHg 39%
    07:00 +13°C° 0 mm 2 mps 703 mmHg 39%
    08:00 +16°C° 0 mm 2 mps 704 mmHg 32%
    09:00 +19°C° 0 mm 2 mps 705 mmHg 26%
    10:00 +23°C° 0 mm 1 mps 706 mmHg 20%
    11:00 +24°C° 0 mm 1 mps 705 mmHg 19%
    12:00 +24°C° 0 mm 1 mps 705 mmHg 17%
    13:00 +25°C° 0 mm 1 mps 705 mmHg 16%
    14:00 +24°C° 0 mm 1 mps 704 mmHg 20%
    15:00 +23°C° 0 mm 1 mps 704 mmHg 24%
    16:00 +22°C° 0 mm 1 mps 703 mmHg 28%
    17:00 +20°C° 0 mm 1 mps 703 mmHg 29%
    18:00 +19°C° 0 mm 1 mps 703 mmHg 29%
    19:00 +16°C° 0 mm 2 mps 703 mmHg 30%
    20:00 +16°C° 0 mm 2 mps 703 mmHg 30%
    21:00 +15°C° 0 mm 2 mps 703 mmHg 31%
    22:00 +15°C° 0 mm 2 mps 703 mmHg 31%
    23:00 +15°C° 0 mm 2 mps 703 mmHg 30%

    20 December, Thursday

    Time Temperature Precipitation Wind Pressure Humidity
    00:00 +15°C° 0 mm 2 mps 702 mmHg 30%
    01:00 +14°C° 0 mm 2 mps 702 mmHg 29%
    02:00 +14°C° 0 mm 2 mps 702 mmHg 30%
    03:00 +14°C° 0 mm 2 mps 702 mmHg 30%
    04:00 +14°C° 0 mm 2 mps 702 mmHg 31%
    05:00 +14°C° 0 mm 2 mps 702 mmHg 32%
    06:00 +13°C° 0 mm 2 mps 702 mmHg 32%
    07:00 +13°C° 0 mm 2 mps 702 mmHg 33%
    08:00 +16°C° 0 mm 2 mps 703 mmHg 28%
    09:00 +19°C° 0 mm 2 mps 703 mmHg 22%
    10:00 +24°C° 0 mm 1 mps 704 mmHg 17%
    11:00 +24°C° 0 mm 1 mps 704 mmHg 16%
    12:00 +25°C° 0 mm 1 mps 703 mmHg 15%
    13:00 +26°C° 0 mm 1 mps 703 mmHg 13%
    14:00 +25°C° 0 mm 1 mps 702 mmHg 17%
    15:00 +24°C° 0 mm 1 mps 702 mmHg 21%
    16:00 +22°C° 0 mm 1 mps 701 mmHg 24%
    17:00 +20°C° 0 mm 1 mps 701 mmHg 26%
    18:00 +19°C° 0 mm 1 mps 701 mmHg 27%
    19:00 +16°C° 0 mm 1 mps 700 mmHg 29%
    20:00 +15°C° 0 mm 1 mps 700 mmHg 28%
    21:00 +15°C° 0 mm 1 mps 700 mmHg 28%
    22:00 +15°C° 0 mm 1 mps 700 mmHg 28%
    23:00 +14°C° 0 mm 1 mps 700 mmHg 28%

    21 December, Friday

    Time Temperature Precipitation Wind Pressure Humidity
    00:00 +14°C° 0 mm 1 mps 699 mmHg 27%
    01:00 +14°C° 0 mm 1 mps 699 mmHg 27%
    02:00 +14°C° 0 mm 1 mps 699 mmHg 27%
    03:00 +13°C° 0 mm 1 mps 699 mmHg 27%
    04:00 +13°C° 0 mm 1 mps 698 mmHg 27%
    05:00 +13°C° 0 mm 1 mps 698 mmHg 27%
    06:00 +13°C° 0 mm 1 mps 698 mmHg 26%
    07:00 +12°C° 0 mm 0 mps 698 mmHg 26%
    08:00 +16°C° 0 mm 1 mps 699 mmHg 22%
    09:00 +20°C° 0 mm 1 mps 700 mmHg 18%
    10:00 +23°C° 0 mm 1 mps 701 mmHg 14%
    11:00 +23°C° 0 mm 1 mps 700 mmHg 14%
    12:00 +23°C° 0 mm 2 mps 700 mmHg 14%
    13:00 +24°C° 0 mm 2 mps 699 mmHg 14%
    14:00 +22°C° 0 mm 1 mps 699 mmHg 18%
    15:00 +21°C° 0 mm 1 mps 698 mmHg 23%
    16:00 +20°C° 0 mm 1 mps 698 mmHg 27%
    17:00 +18°C° 0 mm 1 mps 698 mmHg 27%
    18:00 +16°C° 0 mm 1 mps 698 mmHg 27%
    19:00 +15°C° 0 mm 1 mps 698 mmHg 28%
    20:00 +15°C° 0 mm 1 mps 697 mmHg 28%
    21:00 +14°C° 0 mm 1 mps 697 mmHg 28%
    22:00 +13°C° 0 mm 1 mps 697 mmHg 28%
    23:00 +13°C° 0 mm 1 mps 697 mmHg 28%
    Show more